Zurück zum Katalog

COSMOS 970 DEB

AktivLEO
NORAD 64966·DEBRIS·🇷🇺 Russia

Gestartet Dec 21, 1977 von Baikonur Cosmodrome

Loading…

Nächste Überflüge (nächste 24 Stunden)

TLE

VeraltetSource: Space-Track

Epoche: Sep 6, 2026, 09:49 UTC

1 64966U 77121CB  26249.40935563  .00000214  00000-0  28095-3 0  9991
2 64966  65.8131 290.7337 0102605 150.5271 210.1633 13.78373712642755

Verfolge COSMOS 970 DEB in Echtzeit mit AllMySat

Download on the App Store